Toledo, OH

7:09 PM EDT on April 25, 2018 (GMT -0400)
Toledo Express

Weather History for KTOL - September, 2013

Change the Weather History Date:

Thursday, September 5, 2013

  Actual Average Record
Temperature  
Mean Temperature 63 °F 68 °F  
Max Temperature 74 °F 79 °F 95 °F (1954)
Min Temperature 52 °F 57 °F 42 °F (1972)
Degree Days  
Heating Degree Days 2 1  
Month to date heating degree days 2 5  
Since 1 July heating degree days 31 19  
Cooling Degree Days 0 4  
Month to date cooling degree days 18 24  
Year to date cooling degree days 700 726  
Growing Degree Days 14 (Base 50)    
Moisture  
Dew Point 49 °F    
Average Humidity 62    
Maximum Humidity 97    
Minimum Humidity 27    
Precipitation  
Precipitation 0.00 in 0.09 in 0.63 in (1975)
Month to date precipitation 0.10 0.48  
Year to date precipitation 26.89 23.80  
Snow  
Snow 0.00 in 0.00 in - ()
Month to date snowfall 0.0 0.0  
Since 1 July snowfall 0.0 0.0  
Since 1 September snowfall 0.0 0.0  
Snow Depth 0.00 in    
Sea Level Pressure  
Sea Level Pressure 30.19 in    
Wind  
Wind Speed 6 mph (North)    
Max Wind Speed 13 mph    
Max Gust Speed 18 mph    
Visibility 10 miles    
Events      
T = Trace of Precipitation, MM = Missing Value Source: NWS Daily Summary

Daily Weather History Graph

Daily Weather History Graph

Search for Another Location

Airport or City:

Astronomy

Sep. 05, 2013 Rise Set
Actual Time 7:05 AM EDT 8:01 PM EDT
Civil Twilight 6:37 AM EDT 8:29 PM EDT
Nautical Twilight 6:03 AM EDT 9:03 PM EDT
Astronomical Twilight 5:28 AM EDT 9:37 PM EDT
Moon 7:17 AM EDT (9/5) 7:51 PM EDT (9/5)
Length of Visible Light 13h 52m
Length of Day
12h 55m
New Moon, 0% of the Moon is Illuminated
Sep 5
New Moon
Sep 12
First Quarter
Sep 19
Full
Sep 26
Last Quarter
Oct 4
New

Hourly Weather History & Observations

Time (EDT) Temp. Dew Point Humidity Pressure Visibility Wind Dir Wind Speed Gust Speed Precip Events Conditions
12:52 AM 64.9 °F 55.9 °F 73% 30.09 in 10.0 mi West 6.9 mph - N/A   Clear
1:52 AM 64.0 °F 57.0 °F 78% 30.09 in 10.0 mi WNW 5.8 mph - N/A   Clear
2:52 AM 63.0 °F 57.0 °F 81% 30.10 in 10.0 mi NW 5.8 mph - N/A   Clear
3:52 AM 62.1 °F 57.0 °F 84% 30.11 in 10.0 mi NW 4.6 mph - N/A   Scattered Clouds
4:52 AM 62.1 °F 59.0 °F 90% 30.12 in 10.0 mi North 4.6 mph - N/A   Mostly Cloudy
5:52 AM 61.0 °F 59.0 °F 93% 30.14 in 10.0 mi North 5.8 mph - N/A   Clear
6:52 AM 61.0 °F 57.0 °F 87% 30.16 in 10.0 mi North 9.2 mph - N/A   Overcast
7:52 AM 57.9 °F 54.0 °F 87% 30.19 in 10.0 mi North 9.2 mph - N/A   Clear
8:52 AM 60.1 °F 53.1 °F 78% 30.21 in 10.0 mi North 10.4 mph - N/A   Clear
9:52 AM 62.1 °F 53.1 °F 72% 30.22 in 10.0 mi North 8.1 mph - N/A   Clear
10:52 AM 66.0 °F 52.0 °F 60% 30.22 in 10.0 mi North 6.9 mph - N/A   Clear
11:52 AM 70.0 °F 39.0 °F 32% 30.23 in 10.0 mi NE 11.5 mph - N/A   Clear
12:52 PM 69.1 °F 39.0 °F 33% 30.23 in 10.0 mi Variable 3.5 mph - N/A   Clear
1:52 PM 72.0 °F 39.0 °F 30% 30.23 in 10.0 mi NNE 12.7 mph 16.1 mph N/A   Clear
2:52 PM 73.0 °F 37.9 °F 28% 30.22 in 10.0 mi North 8.1 mph - N/A   Clear
3:52 PM 73.0 °F 37.9 °F 28% 30.21 in 10.0 mi NNE 3.5 mph - N/A   Clear
4:52 PM 72.0 °F 41.0 °F 33% 30.21 in 10.0 mi NNE 6.9 mph - N/A   Clear
5:52 PM 72.0 °F 42.1 °F 34% 30.21 in 10.0 mi NE 6.9 mph - N/A   Clear
6:52 PM 71.1 °F 43.0 °F 36% 30.22 in 10.0 mi NNE 6.9 mph - N/A   Clear
7:52 PM 64.9 °F 46.0 °F 50% 30.22 in 10.0 mi ENE 3.5 mph - N/A   Clear
8:52 PM 59.0 °F 50.0 °F 72% 30.22 in 10.0 mi Calm Calm - N/A   Clear
9:52 PM 55.0 °F 48.9 °F 80% 30.24 in 10.0 mi Calm Calm - N/A   Clear
10:52 PM 54.0 °F 50.0 °F 86% 30.25 in 10.0 mi Calm Calm - N/A   Clear
11:52 PM 54.0 °F 48.9 °F 83% 30.25 in 10.0 mi Calm Calm - N/A   Clear